PEGASUS DEB, 39913

Orbit data source: Space-Track

PEGASUS DEB, 39913 is space debris in LEO originally from a launch on Thu, 19 May 1994 UTC launched from the Air Force Western Test Range (AFWTR). Debris objects in space refer to the collection of defunct objects orbiting the Earth. Examples of debris include non-operational satellites, rocket bodies, and fragments generated from explosions, collisions, or faulty payload assembly.

Loading next visibility...
Identifier
39913, 1994-029AFL
Orbit
LEO
Country
Flag of USUS
Related business
Manufacturer
Unknown
Mission
Spacecraft
Bus & Motor
Unknown
Mass
Unknown
Launch date (UTC)
1994-05-19 (32 years ago)
Launch vehicle
Unknown
Launch site
Air Force Western Test Range (AFWTR)
Object type
Payload
Rocket body
Debris
Shape & HBR
Unknown shape, 0.1 m
Radar Cross Section
Small (<0.1 m²)

Expand to show TLE details & history
Last TLE update: 1 week ago

TLE from 1 week ago
0 PEGASUS DEB
1 39913U 94029AFL 26230.28975355  .00003057  00000-0  94712-3 0  9997
2 39913  81.5625  67.9927 0510083 125.2080 239.7953 13.85509019124207
Epoch: 2026-08-18T06:57Z
TLE epoch observation values (Epoch: 2026-08-18T06:57:14.706Z)
Latitude
-0.00001°
Longitude
-2.97828°
Altitude
1,148.941 km
Speed
7.178 km/s
True Right ascension
04h 31m 58s
True Declination
0° 00' 00"
Sunlit
Object was in daylight at epoch
Visualization orbit readout
Latitude
Unknown
Longitude
Unknown
Altitude
Unknown
Speed
Unknown
Apparent Right ascension
Unknown
Apparent Declination
Unknown
Sunlit
N/A
Visualization observer readout
Local Sidereal Time
23:55:12
Azimuth
Unknown
Elevation
Unknown
Doppler factor
Unknown
Orbital elements
Apogee altitude
1,314.96 km
Perigee altitude
568.226 km
Semi-major axis
7,319.73 km
Eccentricity
0.05101
Inclination
81.5625°
RAAN
67.9927°
Arg. of periapsis
125.208°
True anomaly
234.90685°
Mean anomaly
239.7953°
Eccentric anomaly
237.33497°
Mean motion
3.46578 °/min
Orbital period
103.87 mins
BSTAR
0.00094712
Loading maneuver chart data...
Computing Atmospheric mass density...

Documentation

Showing up to 5 results
|